Alpena, MI

9:27 PM EST on December 09, 2016 (GMT -0500)
Alpena County Regional

Weather History for KAPN - May, 2014

Change the Weather History Date:

Wednesday, May 7, 2014

  Actual Average Record
Temperature  
Mean Temperature 44 °F 50 °F  
Max Temperature 52 °F 62 °F 92 °F (1936)
Min Temperature 35 °F 38 °F 20 °F (1966)
Degree Days  
Heating Degree Days 21 16  
Month to date heating degree days 146 115  
Since 1 July heating degree days 8815 7674  
Cooling Degree Days 0 0  
Month to date cooling degree days 0 0  
Year to date cooling degree days 0 2  
Moisture  
Dew Point 32 °F    
Average Humidity 65    
Maximum Humidity 82    
Minimum Humidity 48    
Precipitation  
Precipitation T in 0.08 in 2.11 in (1983)
Month to date precipitation 0.70 0.55  
Year to date precipitation 9.89 7.78  
Sea Level Pressure  
Sea Level Pressure 30.15 in    
Wind  
Wind Speed 8 mph (ESE)    
Max Wind Speed 20 mph    
Max Gust Speed 26 mph    
Visibility 10 miles    
Events      
T = Trace of Precipitation, MM = Missing Value Source: NWS Daily Summary

Daily Weather History Graph

Daily Weather History Graph

Search for Another Location

Airport or City:

Trip Planner

Search our weather history database for the weather conditions in past years. The results will help you decide how hot, cold, wet, or windy it might be!

Date:

Astronomy

May. 07, 2014 Rise Set
Actual Time 6:14 AM EDT 8:47 PM EDT
Civil Twilight 5:41 AM EDT 9:20 PM EDT
Nautical Twilight 5:00 AM EDT 10:02 PM EDT
Astronomical Twilight 4:12 AM EDT 10:50 PM EDT
Moon 1:32 PM EDT (5/7) 2:32 AM EDT (5/7)
Length of Visible Light 15h 39m
Length of Day
14h 32m
First Quarter, 55% of the Moon is Illuminated
May 7
First Quarter
May 14
Full
May 21
Last Quarter
May 28
New
Jun 5
First Quarter

Hourly Weather History & Observations

Time (EDT) Temp. Windchill Dew Point Humidity Pressure Visibility Wind Dir Wind Speed Gust Speed Precip Events Conditions
12:54 AM 37.9 °F - 32.0 °F 79% 30.16 in 10.0 mi Calm Calm - N/A   Clear
1:54 AM 37.0 °F 33.3 °F 30.0 °F 76% 30.15 in 10.0 mi East 4.6 mph - N/A   Clear
2:54 AM 37.0 °F 31.6 °F 27.0 °F 67% 30.15 in 10.0 mi East 6.9 mph - N/A   Clear
3:54 AM 37.0 °F - 27.0 °F 67% 30.17 in 10.0 mi Calm Calm - N/A   Clear
4:54 AM 36.0 °F 33.3 °F 28.0 °F 73% 30.15 in 10.0 mi East 3.5 mph - N/A   Clear
5:54 AM 37.9 °F 34.4 °F 30.9 °F 76% 30.16 in 10.0 mi East 4.6 mph - N/A   Clear
6:54 AM 39.9 °F 35.1 °F 30.9 °F 70% 30.17 in 10.0 mi ESE 6.9 mph - N/A   Clear
7:54 AM 42.1 °F 35.2 °F 32.0 °F 67% 30.21 in 10.0 mi ESE 12.7 mph 17.3 mph N/A   Clear
8:54 AM 43.0 °F 36.4 °F 32.0 °F 65% 30.20 in 10.0 mi East 12.7 mph - N/A   Clear
9:54 AM 43.0 °F 36.0 °F 32.0 °F 65% 30.19 in 10.0 mi ESE 13.8 mph 23.0 mph N/A   Clear
10:54 AM 44.1 °F 37.7 °F 32.0 °F 63% 30.18 in 10.0 mi ESE 12.7 mph 20.7 mph N/A   Clear
11:54 AM 46.0 °F 39.9 °F 33.1 °F 61% 30.16 in 10.0 mi ESE 13.8 mph - N/A   Clear
12:54 PM 50.0 °F - 33.1 °F 52% 30.17 in 10.0 mi ESE 12.7 mph - N/A   Partly Cloudy
1:54 PM 48.9 °F - 32.0 °F 52% 30.18 in 10.0 mi East 10.4 mph - N/A   Mostly Cloudy
2:54 PM 51.1 °F - 32.0 °F 48% 30.15 in 10.0 mi SE 10.4 mph - N/A   Partly Cloudy
3:54 PM 50.0 °F - 33.1 °F 52% 30.14 in 10.0 mi ESE 6.9 mph - N/A   Overcast
4:54 PM 48.9 °F - 32.0 °F 52% 30.14 in 10.0 mi ESE 6.9 mph - N/A   Overcast
5:54 PM 48.0 °F - 33.1 °F 56% 30.14 in 10.0 mi East 9.2 mph - N/A   Overcast
6:54 PM 46.9 °F - 34.0 °F 61% 30.11 in 10.0 mi ESE 5.8 mph - N/A   Overcast
7:54 PM 46.9 °F - 33.1 °F 59% 30.11 in 10.0 mi East 4.6 mph - N/A   Overcast
8:54 PM 46.9 °F - 32.0 °F 56% 30.10 in 10.0 mi East 9.2 mph - 0.00 in   Overcast
9:54 PM 46.9 °F - 32.0 °F 56% 30.09 in 10.0 mi ESE 12.7 mph - N/A   Overcast
10:54 PM 46.0 °F 41.4 °F 33.1 °F 61% 30.08 in 10.0 mi SE 9.2 mph - N/A   Overcast
11:54 PM 44.1 °F 41.5 °F 34.0 °F 68% 30.08 in 10.0 mi SE 4.6 mph - N/A   Overcast